Content
SEND FEEDBACK

Daily
Averages
Monthly
Summary
United States of America

EL PASO, TEXAS


Home > North America > United States > Texas
Elevation: 1194 meters     Latitude: 31 48N     Longitude: 106 24W

WEATHER
 
SELECT A DAY
Number of Records: 175,959;   Date Range: 1/1/95 - 12/19/14
 
SHARE

PRINT THIS DATA

[ ← Previous Day ]
WEATHER ALMANAC - 31 AUGUST, 2013
[ Next Day → ]
[ °F ]   °C
Weather ElementAverageHighLow
Temperature29.1 °C35 °C (4:51 pm)21.7 °C (5:51 am)
Dewpoint14.3 °C18.9 °C (2:51 am)9 °C (9:51 pm)
Humidity45.3 %79 % (2:51 am)23 % (4:51 pm)
Barometer1008.8 hPa1011.5 hPa (8:51 am)1006.1 hPa (4:51 pm)
Wind Speed7.6 km/h18.5 km/h (1:51 pm)
Wind Gust25.9 km/h (3:51 pm)
Weather ElementAverage
Visibility16.1 km
Wind DirectionSSE (154.3 °)

Weather ElementTotal
Precipitation---
Cooling Degree Days10.1 (Base 18.3)
Growing Degree Days18.4 (Base 10)
Averaged from 23 records on 31 August, 2013
WEATHER CONDITIONS BREAKOUT
WIND DIRECTION BREAKOUT
WEATHER BY HOUR - 31 AUGUST, 2013
[ °F ]   °C
Local TimeTemperatureDewpointHumidityBarometerVisibilityWind DirectionWind SpeedGust SpeedPrecipitationEventsConditions
1:51 AM24.4 °C18.3 °C69 %1010.5 hPa16.1 kmVariable5.6 km/hScattered Clouds
2:51 AM22.8 °C18.9 °C79 %1010.2 hPa16.1 kmEast (90°)9.3 km/hPartly Cloudy
3:51 AM22.8 °C18.3 °C76 %1010.2 hPa16.1 kmSE (130°)9.3 km/hPartly Cloudy
4:51 AM22.2 °C17.8 °C76 %1009.8 hPa16.1 kmSE (140°)9.3 km/hPartly Cloudy
5:51 AM21.7 °C17.8 °C78 %1010.2 hPa16.1 kmSE (140°)7.4 km/hScattered Clouds
6:51 AM21.7 °C17.2 °C75 %1010.8 hPa16.1 kmESE (120°)5.6 km/hPartly Cloudy
7:51 AM23.3 °C17.8 °C71 %1011.2 hPa16.1 kmEast (90°)7.4 km/hPartly Cloudy
8:51 AM24.4 °C17.2 °C64 %1011.5 hPa16.1 kmCalmClear
9:51 AM27.2 °C17.2 °C54 %1011.2 hPa16.1 kmCalmPartly Cloudy
10:51 AM30 °C17.2 °C46 %1010.8 hPa16.1 kmCalmScattered Clouds
11:51 AM31.7 °C15 °C36 %1010.5 hPa16.1 kmCalmPartly Cloudy
12:51 PM32.8 °C14.4 °C33 %1009.8 hPa16.1 kmVariable7.4 km/hPartly Cloudy
1:51 PM33.9 °C13.3 °C29 %1008.8 hPa16.1 kmWSW (240°)18.5 km/hPartly Cloudy
2:51 PM34.4 °C12.8 °C27 %1007.8 hPa16.1 kmWest (280°)7.4 km/hScattered Clouds
3:51 PM34.4 °C12.2 °C26 %1006.8 hPa16.1 kmSW (230°)13 km/h25.9 km/hScattered Clouds
4:51 PM35 °C11.1 °C23 %1006.1 hPa16.1 kmWSW (250°)9.3 km/hScattered Clouds
5:51 PM34.4 °C10.6 °C23 %1006.1 hPa16.1 kmWSW (240°)7.4 km/hScattered Clouds
6:51 PM33.9 °C10.6 °C24 %1006.1 hPa16.1 kmWest (260°)14.8 km/hScattered Clouds
7:51 PM32.8 °C11.1 °C26 %1006.4 hPa16.1 kmWest (260°)14.8 km/hScattered Clouds
8:51 PM32.2 °C10 °C25 %1007.1 hPa16.1 kmWSW (250°)9.3 km/hPartly Cloudy
9:51 PM31 °C9 °C25 %1007.5 hPa16.1 kmWest (260°)5.6 km/hPartly Cloudy
10:51 PM31.1 °C10 °C27 %1007.1 hPa16.1 kmWest (280°)5.6 km/hPartly Cloudy
11:51 PM30.6 °C11.1 °C30 %1006.8 hPa16.1 kmWNW (290°)7.4 km/hClear
Hourly data recorded from KELP, located 0 kilometers away from El Paso, Texas







STORIES FROM OUR PARTNERS